Location: ??
(34.7707°N, 135.6540°E)
Time: 07:04:55
(UTC+00:00)

Tiangong - Pass Details

Date: 27 September 2021
Orbit: 382 x 385 km, 41.5° (Epoch: 17 October)

Event Time Altitude Azimuth Distance (km) Brightness Sun altitude
Exits shadow 19:54:41 20° 283° (WNW) 943 2.4 -12.1°
Maximum altitude 19:56:26 39° 343° (NNW) 583 1.8 -11.7°
Drops below altitude 10° 19:59:24 10° 54° (NE) 1,386 4.9 -11.1°
Sets 20:01:34 0° 62° (ENE) 2,249 6.4 -10.7°
